Location: White Sands National Monument
(32.8140°N, 106.2665°W)
Time: 03:43:28
(UTC-06:00)

Daily predictions for brighter satellites

Satellite Brightness Start Highest point End
(mag) Time Altitude Azimuth Time Altitude Azimuth Time Altitude Azimuth
Cosmos 2278 Rocket 4.5 00:08:05 10° NNW 00:09:39 19° NNW 00:09:39 19° NNW
ATLAS 2AS CENTAUR R/B 4.4 00:20:13 28° NE 00:20:13 28° NE 00:23:39 10° NE
ATLAS 3B R/B 4.4 00:49:43 10° N 00:53:17 25° NNE 00:53:17 25° NNE
ATLAS 2AS CENTAUR R/B 4.4 02:07:36 27° NW 02:07:36 27° NW 02:14:00 10° N
BREEZE M DEB (TANK) 4.3 02:32:42 10° NW 02:48:56 69° NNW 02:48:56 69° NNW
Resurs 1-4 Rocket 3.9 02:46:41 10° NE 02:49:36 26° ENE 02:49:36 26° ENE
CZ-2D R/B 3.6 02:56:57 10° NNE 03:00:15 32° ENE 03:00:15 32° ENE
COSMOS 2455 3.5 03:06:29 10° NNW 03:12:09 50° NE 03:12:09 50° NE
Cosmos 1943 Rocket 4.4 03:08:23 10° NNW 03:09:23 15° NNW 03:09:23 15° NNW
COSMOS 2406 4.1 03:17:44 46° N 03:17:44 46° N 03:21:45 10° NNE
ARIANE 5 R/B 3.3 03:26:15 10° NNE 03:30:09 51° NNE 03:30:09 51° NNE
NOSS 3-2 (C) 3.9 03:28:04 10° NNW 03:35:50 80° WSW 03:37:19 63° S
Cosmos 1821 Rocket 3.9 03:29:53 10° N 03:35:56 77° ENE 03:35:56 77° ENE
SL-16 R/B 2.4 03:36:44 83° NNE 03:36:44 83° NNE 03:42:43 10° NNW
Cosmos 1953 4.4 03:36:43 10° N 03:38:39 25° NNE 03:38:39 25° NNE
USA 267 3.5 03:36:01 10° SE 03:42:27 65° NE 03:48:55 10° NW
Cosmos 2239 Rocket 4.3 03:40:13 10° N 03:46:09 82° NW 03:46:09 82° NW
CENTAUR R/B 4.0 03:38:44 10° NNW 03:46:25 47° NE 03:54:28 10° SE
ADEOS Rocket 3.0 03:40:40 10° N 03:46:49 75° WNW 03:46:59 75° W
Cosmos 1818 3.7 03:47:39 72° NE 03:47:39 72° NE 03:52:32 10° NNE
GEOS 3 Rocket 4.4 03:42:40 10° NNE 03:47:02 43° NNW 03:47:02 43° NNW
Okean O Rocket 4.2 03:50:23 10° ENE 03:53:00 15° E 03:55:35 10° SE
UNKNOWN OBJECT B 4.2 03:49:00 10° NNE 03:51:34 38° NNE 03:51:34 38° NNE
Cosmos 1535 Rocket 4.3 03:47:39 10° N 03:53:52 78° W 03:53:55 78° W
Cosmos 1605 Rocket 4.4 03:50:31 10° N 03:56:37 58° E 04:00:20 24° SSE
ADEOS II 4.3 03:53:30 10° NE 03:57:19 20° E 04:01:07 10° SE
Cosmos 1934 Rocket 3.9 03:51:40 10° N 03:58:00 90° W 03:59:23 58° S
Tiangong 1 4.2 04:04:20 12° NNE 04:04:20 12° NNE 04:05:05 10° NE
OAO 1 4.4 04:10:06 71° S 04:10:15 71° SSE 04:15:42 10° ENE
Cosmos 1733 3.6 04:12:55 10° N 04:16:23 60° NE 04:16:23 60° NE
USA 161 4.0 04:18:52 19° N 04:18:52 19° N 04:19:50 10° N
Lacrosse 5 rocket 2.7 04:17:23 32° NW 04:17:23 32° NW 04:21:25 10° NNE
Delta 2 Rocket 3.8 04:22:47 43° NE 04:22:47 43° NE 04:25:28 10° ENE
Cosmos 389 Rocket 2.9 04:19:33 10° N 04:23:01 62° ENE 04:23:01 62° ENE
Cosmos 2098 Rocket 4.3 04:21:16 10° N 04:22:26 21° N 04:22:26 21° N
MOS 1 Rocket 3.0 04:23:55 10° N 04:28:17 79° WNW 04:28:54 65° SW
Cosmos 1624 Rocket 4.1 04:24:53 10° NNW 04:29:49 50° W 04:29:49 50° W
Cosmos-2242 2.9 04:26:31 10° N 04:30:56 87° W 04:32:08 48° S
Resurs 1-4 Rocket 3.4 04:26:51 10° NNW 04:30:41 24° WNW 04:30:41 24° WNW
CZ-4B R/B 4.1 04:27:38 10° NNE 04:31:49 44° E 04:34:49 18° SSE
Meteor 2-5 Rocket 3.6 04:35:16 31° SSW 04:38:07 83° W 04:43:56 10° N
Cosmos 921 Rocket 3.5 04:35:14 10° NNW 04:39:02 43° W 04:39:02 43° W
CZ-2D R/B 3.6 04:37:55 10° NNW 04:41:35 20° WNW 04:41:35 20° WNW
Cosmos 2056 Rocket 3.9 04:38:23 10° NNW 04:43:19 40° W 04:43:41 39° WSW
Cosmos 374 Rocket 4.3 04:40:04 10° NW 04:43:49 59° WSW 04:48:13 10° SSE
MOS 1-B 4.3 04:39:57 10° N 04:45:42 65° WNW 04:48:42 29° SW
KM-V1 3.9 04:47:54 60° SW 04:48:17 67° S 04:53:32 10° E
Cosmos 2082 Rocket 2.1 04:50:20 26° SSW 04:53:42 81° WNW 04:59:26 10° NNE
Cosmos 1833 Rocket 2.6 04:51:16 24° SSW 04:54:47 87° WNW 05:00:25 10° NNE
Cosmos 1727 Rocket 4.4 04:54:52 28° SW 04:57:26 40° W 05:03:13 10° N
MOZ.5/SAFIR/RUBIN 5/SL-8 4.4 04:57:43 31° WSW 04:58:11 32° W 05:02:21 10° NW
Cosmos 158 Rocket 3.9 04:55:08 20° SSW 04:58:36 86° ESE 05:03:42 10° NNE
Landsat 4 3.8 04:59:58 28° SSW 05:01:35 49° W 05:05:13 10° NNW
DNEPR-1 R/B 3.6 04:58:30 10° NNW 05:02:46 83° ENE 05:07:29 10° SSE
Cosmos 1707 3.9 05:03:04 24° WNW 05:03:04 24° WNW 05:06:12 10° NNW
Cosmos 1656 4.3 04:58:01 10° NNW 05:03:22 57° ENE 05:08:41 10° SE
CZ-4B R/B 3.1 05:01:27 10° NNE 05:06:50 87° ESE 05:12:07 10° SSW
PAYLOAD B 4.2 05:01:43 10° NNE 05:07:19 84° WNW 05:12:49 10° SSW
Okean 3 Rocket 3.9 05:08:19 10° S 05:12:39 67° E 05:17:02 10° NNE
Cosmos 2016 Rocket 4.4 05:06:35 10° N 05:12:48 66° E 05:19:05 10° SSE
Cosmos 1470 4.3 05:11:58 10° NW 05:14:26 19° W 05:14:26 19° W
ERS-2 4.5 05:14:06 10° NE 05:17:08 24° E 05:20:10 10° SSE
COSMOS 2487 4.3 05:17:47 16° WNW 05:18:07 16° WNW 05:20:28 10° NNW
Cosmos 1452 Rocket 3.7 05:13:20 10° NNW 05:18:23 49° WSW 05:23:25 10° S
BREEZE-M DEB 4.4 05:12:37 10° SSW 05:18:38 30° SSE 05:21:11 10° E
Meteor 1-16 Rocket 4.2 05:14:15 10° NNW 05:19:26 52° W 05:24:33 10° S
GPS 2-05 Rocket1 2.8 05:20:09 22° W 05:22:16 77° NNW 05:25:43 10° ENE
USA 267 4.0 05:20:14 10° S 05:25:38 28° SW 05:31:04 10° WNW
OE (NEXTSAT) 4.5 05:24:19 19° SW 05:26:43 73° SE 05:30:16 10° ENE
IRS-1C Rocket 4.2 05:22:43 10° N 05:27:51 55° WNW 05:32:58 10° SSW
Cosmos 1802 Rocket 4.0 05:21:51 10° N 05:28:16 76° W 05:34:37 10° S
Okean O Rocket 2.3 05:25:23 10° N 05:29:27 36° WNW 05:33:06 12° SW
CZ-3 R/B 3.4 05:15:04 13° SW 05:30:47 37° S 05:36:32 10° ESE
Cosmos 1420 Rocket 4.1 05:29:53 10° NNW 05:35:04 55° WSW 05:40:11 10° S
Cosmos 1459 Rocket 4.1 05:29:57 10° NNW 05:35:56 53° W 05:41:59 10° SSW
Cosmos 1766 Rocket 4.4 05:32:38 10° S 05:37:00 56° E 05:41:24 10° NNE
CENTAUR R/B 3.6 05:29:44 10° NW 05:37:05 38° WSW 05:44:38 10° S
ADEOS II 2.7 05:32:15 10° N 05:37:06 39° WNW 05:41:56 10° SW
Tiangong 1 2.1 05:37:14 10° NW 05:39:55 40° NNE 05:42:37 10° E
NOSS 8 (H) 4.5 05:37:02 11° SW 05:40:15 60° WNW 05:43:38 10° NNE
Meteor 1-24 Rocket 4.3 05:36:18 10° SW 05:41:12 35° WNW 05:46:18 10° N
In-Cosmos 22 4.2 05:36:58 10° SSW 05:42:10 53° W 05:47:20 10° N
EXPRESS MD2 4.2 05:40:15 10° NW 05:43:34 34° NNE 05:45:46 10° ESE
Cosmos 1725 Rocket 4.2 05:37:45 10° N 05:44:03 82° E 05:50:22 10° S
SL-24 R/B 4.4 05:39:13 10° N 05:44:04 88° E 05:48:55 10° S
Timation 2 Rocket 4.4 05:38:10 10° SW 05:44:42 51° WNW 05:51:02 10° N
Cosmos 1076 Rocket 3.4 05:42:35 10° SSW 05:46:48 71° W 05:51:02 10° N
SL-08 R/B 4.5 05:48:16 10° NNW 05:54:19 66° W 06:00:19 10° S
Cosmos 1408 Rocket 3.6 05:55:29 10° S 05:59:55 78° W 06:04:25 10° N
